Time,TemperatureF,DewpointF,PressureIn,WindDirection,WindDirectionDegrees,WindSpeedMPH,WindSpeedGustMPH,Humidity,HourlyPrecipIn,Conditions,Clouds,dailyrainin,SoftwareType,DateUTC
2013-01-14 00:04:00,60.0,59.0,29.99,NW,324,0.0,0.0,97,0.46,,,0.82,,2013-01-14 05:04:00,
2013-01-14 00:12:00,60.0,59.0,29.99,NW,324,0.0,0.0,97,0.46,,,0.82,,2013-01-14 05:12:00,
2013-01-14 00:22:00,60.0,59.0,29.99,NW,324,0.0,1.0,97,0.51,,,0.90,,2013-01-14 05:22:00,
2013-01-14 00:33:00,60.0,59.0,29.99,NW,324,0.0,0.0,97,0.52,,,0.95,,2013-01-14 05:33:00,
2013-01-14 00:43:00,60.0,59.0,29.99,NW,324,0.0,0.0,97,0.52,,,0.95,,2013-01-14 05:43:00,
2013-01-14 00:52:00,59.0,58.0,29.99,NW,324,0.0,0.0,97,0.42,,,0.98,,2013-01-14 05:52:00,
2013-01-14 01:03:00,59.0,58.0,29.99,NW,324,0.0,0.0,97,0.17,,,1.00,,2013-01-14 06:03:00,
2013-01-14 01:12:00,59.0,58.0,29.99,NW,324,0.0,0.0,97,0.17,,,1.00,,2013-01-14 06:12:00,
2013-01-14 01:22:00,59.0,58.0,29.98,NW,324,0.0,0.0,97,0.11,,,1.02,,2013-01-14 06:22:00,
2013-01-14 01:33:00,59.0,58.0,29.98,NW,324,0.0,0.0,97,0.11,,,1.02,,2013-01-14 06:33:00,
2013-01-14 01:43:00,59.0,58.0,29.98,NW,324,0.0,0.0,97,0.11,,,1.02,,2013-01-14 06:43:00,
2013-01-14 01:52:00,59.0,58.0,29.98,NW,324,0.0,0.0,97,0.05,,,1.03,,2013-01-14 06:52:00,
2013-01-14 02:02:00,59.0,58.0,29.98,NW,324,0.0,0.0,97,0.04,,,1.04,,2013-01-14 07:02:00,
2013-01-14 02:12:00,59.0,58.0,29.98,NW,324,0.0,0.0,97,0.04,,,1.04,,2013-01-14 07:12:00,
2013-01-14 02:23:00,59.0,58.0,29.97,NW,324,0.0,0.0,98,0.02,,,1.04,,2013-01-14 07:23:00,
2013-01-14 02:33:00,59.0,58.0,29.98,NW,324,0.0,1.0,98,0.02,,,1.05,,2013-01-14 07:33:00,
2013-01-14 02:43:00,59.0,58.0,29.98,NW,324,0.0,1.0,98,0.02,,,1.05,,2013-01-14 07:43:00,
2013-01-14 02:52:00,59.0,58.0,29.98,NW,324,0.0,2.0,98,0.03,,,1.06,,2013-01-14 07:52:00,
2013-01-14 03:02:00,59.0,58.0,29.98,NW,324,0.0,0.0,98,0.02,,,1.06,,2013-01-14 08:02:00,
2013-01-14 03:12:00,59.0,58.0,29.98,NW,324,0.0,0.0,98,0.02,,,1.06,,2013-01-14 08:12:00,
2013-01-14 03:22:00,59.0,58.0,29.98,NW,324,0.0,0.0,98,0.02,,,1.07,,2013-01-14 08:22:00,
2013-01-14 03:33:00,59.0,58.0,29.98,NW,324,0.0,0.0,98,0.02,,,1.07,,2013-01-14 08:33:00,
2013-01-14 03:42:00,59.0,58.0,29.98,NW,324,0.0,0.0,98,0.02,,,1.07,,2013-01-14 08:42:00,
2013-01-14 03:53:00,59.0,58.0,29.97,NW,324,0.0,0.0,98,0.01,,,1.07,,2013-01-14 08:53:00,
2013-01-14 04:03:00,58.0,57.0,29.97,NW,324,0.0,0.0,98,0.00,,,1.07,,2013-01-14 09:03:00,
2013-01-14 04:12:00,58.0,57.0,29.97,NW,324,0.0,0.0,98,0.00,,,1.07,,2013-01-14 09:12:00,
2013-01-14 04:23:00,58.0,57.0,29.96,NW,324,0.0,0.0,98,0.00,,,1.07,,2013-01-14 09:23:00,
2013-01-14 04:33:00,58.0,57.0,29.96,NW,324,0.0,0.0,98,0.00,,,1.07,,2013-01-14 09:33:00,
2013-01-14 04:43:00,58.0,57.0,29.96,NW,324,0.0,0.0,98,0.00,,,1.07,,2013-01-14 09:43:00,
2013-01-14 04:52:00,58.0,57.0,29.96,NW,324,0.0,0.0,98,0.00,,,1.07,,2013-01-14 09:52:00,
2013-01-14 05:02:00,58.0,57.0,29.95,NW,324,0.0,0.0,98,0.01,,,1.08,,2013-01-14 10:02:00,
2013-01-14 05:12:00,58.0,57.0,29.95,NW,324,0.0,0.0,98,0.01,,,1.08,,2013-01-14 10:12:00,
2013-01-14 05:23:00,58.0,57.0,29.95,NW,324,0.0,0.0,98,0.01,,,1.08,,2013-01-14 10:23:00,
2013-01-14 05:32:00,58.0,57.0,29.95,NW,324,0.0,0.0,98,0.01,,,1.08,,2013-01-14 10:32:00,
2013-01-14 05:43:00,58.0,57.0,29.95,NW,324,0.0,0.0,98,0.01,,,1.08,,2013-01-14 10:43:00,
2013-01-14 05:52:00,58.0,57.0,29.96,NW,324,0.0,0.0,98,0.01,,,1.08,,2013-01-14 10:52:00,
2013-01-14 06:02:00,58.0,57.0,29.96,NW,324,0.0,1.0,98,0.00,,,1.08,,2013-01-14 11:02:00,
2013-01-14 06:12:00,58.0,57.0,29.96,NW,324,0.0,1.0,98,0.00,,,1.08,,2013-01-14 11:12:00,
2013-01-14 06:22:00,58.0,57.0,29.96,NW,324,0.0,1.0,98,0.00,,,1.08,,2013-01-14 11:22:00,
2013-01-14 06:33:00,57.0,56.0,29.98,NW,324,0.0,2.0,98,0.01,,,1.09,,2013-01-14 11:33:00,
2013-01-14 06:43:00,57.0,56.0,29.98,NW,324,0.0,2.0,98,0.01,,,1.09,,2013-01-14 11:43:00,
2013-01-14 06:53:00,56.0,55.0,29.98,NW,324,0.0,0.0,98,0.01,,,1.09,,2013-01-14 11:53:00,
2013-01-14 07:03:00,56.0,55.0,29.99,NW,324,0.0,1.0,97,0.02,,,1.10,,2013-01-14 12:03:00,
2013-01-14 07:12:00,56.0,55.0,29.99,NW,324,0.0,1.0,97,0.02,,,1.10,,2013-01-14 12:12:00,
2013-01-14 07:23:00,55.0,54.0,29.99,NW,324,0.0,1.0,97,0.01,,,1.10,,2013-01-14 12:23:00,
2013-01-14 07:33:00,55.0,54.0,29.99,NW,324,0.0,1.0,97,0.01,,,1.10,,2013-01-14 12:33:00,
2013-01-14 07:43:00,55.0,54.0,29.99,NW,324,0.0,1.0,97,0.01,,,1.10,,2013-01-14 12:43:00,
2013-01-14 07:53:00,54.0,53.0,30.00,NW,324,0.0,1.0,98,0.01,,,1.10,,2013-01-14 12:53:00,
2013-01-14 08:03:00,53.0,52.0,30.00,NW,324,0.0,2.0,97,0.01,,,1.11,,2013-01-14 13:03:00,
2013-01-14 08:13:00,53.0,52.0,30.00,NW,324,0.0,2.0,97,0.01,,,1.11,,2013-01-14 13:13:00,
2013-01-14 08:23:00,52.0,51.0,30.01,NW,324,0.0,2.0,97,0.02,,,1.12,,2013-01-14 13:23:00,
2013-01-14 08:33:00,52.0,51.0,30.01,NW,324,0.0,2.0,97,0.03,,,1.12,,2013-01-14 13:33:00,
2013-01-14 08:43:00,52.0,51.0,30.01,NW,324,0.0,2.0,97,0.03,,,1.12,,2013-01-14 13:43:00,
2013-01-14 08:53:00,51.0,50.0,30.02,NW,324,0.0,2.0,97,0.04,,,1.13,,2013-01-14 13:53:00,
2013-01-14 09:03:00,51.0,50.0,30.02,NW,324,0.0,2.0,98,0.04,,,1.14,,2013-01-14 14:03:00,
2013-01-14 09:13:00,51.0,50.0,30.02,NW,324,0.0,2.0,98,0.04,,,1.14,,2013-01-14 14:13:00,
2013-01-14 09:23:00,50.0,49.0,30.03,NW,324,0.0,4.0,97,0.04,,,1.15,,2013-01-14 14:23:00,
2013-01-14 09:33:00,50.0,49.0,30.04,WSW,238,0.0,3.0,97,0.04,,,1.17,,2013-01-14 14:33:00,
2013-01-14 09:43:00,50.0,49.0,30.04,WSW,238,0.0,3.0,97,0.04,,,1.17,,2013-01-14 14:43:00,
2013-01-14 09:53:00,49.0,48.0,30.05,WSW,245,0.0,1.0,98,0.04,,,1.18,,2013-01-14 14:53:00,
2013-01-14 10:03:00,49.0,48.0,30.05,North,360,0.0,3.0,98,0.05,,,1.20,,2013-01-14 15:03:00,
2013-01-14 10:12:00,49.0,48.0,30.05,North,360,0.0,3.0,98,0.05,,,1.20,,2013-01-14 15:12:00,
2013-01-14 10:23:00,49.0,48.0,30.06,NW,326,0.0,3.0,97,0.04,,,1.20,,2013-01-14 15:23:00,
2013-01-14 10:33:00,48.0,47.0,30.05,NNW,338,1.0,2.0,97,0.05,,,1.22,,2013-01-14 15:33:00,
2013-01-14 10:43:00,48.0,47.0,30.05,NNW,338,1.0,2.0,97,0.05,,,1.22,,2013-01-14 15:43:00,
2013-01-14 10:53:00,48.0,47.0,30.06,NNW,338,0.0,2.0,98,0.03,,,1.22,,2013-01-14 15:53:00,
2013-01-14 11:03:00,48.0,47.0,30.06,NNW,338,0.0,1.0,98,0.03,,,1.23,,2013-01-14 16:03:00,
2013-01-14 11:12:00,48.0,47.0,30.06,NNW,338,0.0,1.0,98,0.03,,,1.23,,2013-01-14 16:12:00,
2013-01-14 11:23:00,48.0,47.0,30.05,NNW,341,0.0,3.0,98,0.04,,,1.24,,2013-01-14 16:23:00,
2013-01-14 11:33:00,48.0,47.0,30.06,NNW,342,0.0,2.0,98,0.02,,,1.24,,2013-01-14 16:33:00,
2013-01-14 11:43:00,48.0,47.0,30.06,NNW,342,0.0,2.0,98,0.02,,,1.24,,2013-01-14 16:43:00,
2013-01-14 11:53:00,48.0,47.0,30.06,NNE,22,0.0,1.0,98,0.04,,,1.26,,2013-01-14 16:53:00,
2013-01-14 12:03:00,47.0,46.0,30.05,North,355,0.0,2.0,98,0.05,,,1.28,,2013-01-14 17:03:00,
2013-01-14 12:12:00,47.0,46.0,30.05,North,355,0.0,2.0,98,0.05,,,1.28,,2013-01-14 17:12:00,
2013-01-14 12:23:00,47.0,46.0,30.05,North,355,0.0,1.0,98,0.08,,,1.32,,2013-01-14 17:23:00,
2013-01-14 12:33:00,47.0,46.0,30.04,North,355,0.0,0.0,98,0.10,,,1.34,,2013-01-14 17:33:00,
2013-01-14 12:43:00,47.0,46.0,30.04,North,355,0.0,0.0,98,0.10,,,1.34,,2013-01-14 17:43:00,
2013-01-14 12:53:00,47.0,46.0,30.03,North,355,0.0,0.0,98,0.15,,,1.41,,2013-01-14 17:53:00,
2013-01-14 13:03:00,47.0,46.0,30.03,North,355,0.0,0.0,98,0.18,,,1.46,,2013-01-14 18:03:00,
2013-01-14 13:13:00,47.0,46.0,30.03,North,355,0.0,0.0,98,0.18,,,1.46,,2013-01-14 18:13:00,
2013-01-14 13:23:00,47.0,46.0,30.02,North,355,0.0,0.0,98,0.18,,,1.50,,2013-01-14 18:23:00,
2013-01-14 13:33:00,47.0,46.0,30.02,North,355,0.0,1.0,98,0.20,,,1.54,,2013-01-14 18:33:00,
2013-01-14 13:43:00,47.0,46.0,30.02,North,355,0.0,1.0,98,0.20,,,1.54,,2013-01-14 18:43:00,
2013-01-14 13:52:00,47.0,46.0,30.01,North,355,0.0,0.0,98,0.16,,,1.57,,2013-01-14 18:52:00,
2013-01-14 14:03:00,47.0,46.0,30.01,North,355,0.0,1.0,98,0.12,,,1.58,,2013-01-14 19:03:00,
2013-01-14 14:13:00,47.0,46.0,30.01,North,355,0.0,1.0,98,0.12,,,1.58,,2013-01-14 19:13:00,
2013-01-14 14:22:00,47.0,46.0,30.01,North,355,0.0,1.0,98,0.12,,,1.58,,2013-01-14 19:22:00,
2013-01-14 14:33:00,47.0,47.0,30.01,North,355,0.0,1.0,99,0.07,,,1.61,,2013-01-14 19:33:00,
2013-01-14 14:43:00,47.0,47.0,30.01,North,355,0.0,1.0,99,0.07,,,1.61,,2013-01-14 19:43:00,
2013-01-14 14:53:00,47.0,47.0,30.01,North,355,0.0,1.0,99,0.05,,,1.62,,2013-01-14 19:53:00,
2013-01-14 15:04:00,47.0,47.0,30.02,North,355,0.0,1.0,99,0.04,,,1.62,,2013-01-14 20:04:00,
2013-01-14 15:13:00,47.0,47.0,30.02,North,355,0.0,1.0,99,0.04,,,1.62,,2013-01-14 20:13:00,
2013-01-14 15:23:00,47.0,47.0,30.01,North,355,0.0,0.0,99,0.02,,,1.62,,2013-01-14 20:23:00,
2013-01-14 15:33:00,48.0,48.0,30.02,North,355,0.0,0.0,99,0.01,,,1.62,,2013-01-14 20:33:00,
2013-01-14 15:43:00,48.0,48.0,30.02,North,355,0.0,0.0,99,0.01,,,1.62,,2013-01-14 20:43:00,
2013-01-14 15:53:00,48.0,48.0,30.02,North,355,0.0,0.0,99,0.01,,,1.62,,2013-01-14 20:53:00,
2013-01-14 16:03:00,48.0,48.0,30.03,North,355,0.0,1.0,99,0.03,,,1.65,,2013-01-14 21:03:00,
2013-01-14 16:13:00,48.0,48.0,30.03,North,355,0.0,1.0,99,0.03,,,1.65,,2013-01-14 21:13:00,
2013-01-14 16:23:00,48.0,48.0,30.03,North,355,0.0,1.0,99,0.04,,,1.66,,2013-01-14 21:23:00,
2013-01-14 16:33:00,48.0,47.0,30.04,North,355,0.0,1.0,98,0.04,,,1.66,,2013-01-14 21:33:00,
2013-01-14 16:43:00,48.0,47.0,30.04,North,355,0.0,1.0,98,0.04,,,1.66,,2013-01-14 21:43:00,
2013-01-14 16:53:00,48.0,48.0,30.04,North,355,0.0,1.0,99,0.02,,,1.66,,2013-01-14 21:53:00,
2013-01-14 17:03:00,48.0,48.0,30.04,North,355,0.0,2.0,99,0.01,,,1.66,,2013-01-14 22:03:00,
2013-01-14 17:12:00,48.0,48.0,30.04,North,355,0.0,2.0,99,0.01,,,1.66,,2013-01-14 22:12:00,
2013-01-14 17:23:00,48.0,48.0,30.05,North,355,0.0,1.0,99,0.00,,,1.66,,2013-01-14 22:23:00,
2013-01-14 17:33:00,48.0,48.0,30.06,North,355,0.0,0.0,99,0.01,,,1.67,,2013-01-14 22:33:00,
2013-01-14 17:43:00,48.0,48.0,30.06,North,355,0.0,0.0,99,0.01,,,1.67,,2013-01-14 22:43:00,
2013-01-14 17:52:00,48.0,48.0,30.08,SE,128,0.0,2.0,99,0.02,,,1.68,,2013-01-14 22:52:00,
2013-01-14 18:03:00,47.0,46.0,30.08,NW,325,0.0,2.0,98,0.03,,,1.69,,2013-01-14 23:03:00,
2013-01-14 18:12:00,47.0,46.0,30.08,NW,325,0.0,2.0,98,0.03,,,1.69,,2013-01-14 23:12:00,
2013-01-14 18:23:00,47.0,46.0,30.08,NW,325,0.0,1.0,98,0.03,,,1.69,,2013-01-14 23:23:00,
2013-01-14 18:33:00,47.0,46.0,30.09,West,271,0.0,2.0,98,0.03,,,1.70,,2013-01-14 23:33:00,
2013-01-14 18:43:00,47.0,46.0,30.09,West,271,0.0,2.0,98,0.03,,,1.70,,2013-01-14 23:43:00,
2013-01-14 18:53:00,47.0,46.0,30.09,West,271,0.0,2.0,98,0.03,,,1.70,,2013-01-14 23:53:00,
2013-01-14 19:03:00,45.0,44.0,30.11,NW,319,0.0,1.0,98,0.04,,,1.73,,2013-01-15 00:03:00,
2013-01-14 19:12:00,45.0,44.0,30.11,NW,319,0.0,1.0,98,0.04,,,1.73,,2013-01-15 00:12:00,
2013-01-14 19:23:00,45.0,44.0,30.10,NW,319,0.0,2.0,98,0.04,,,1.73,,2013-01-15 00:23:00,
2013-01-14 19:33:00,45.0,44.0,30.12,NW,319,0.0,1.0,98,0.02,,,1.73,,2013-01-15 00:33:00,
2013-01-14 19:43:00,45.0,44.0,30.12,NW,319,0.0,1.0,98,0.02,,,1.73,,2013-01-15 00:43:00,
2013-01-14 19:52:00,45.0,44.0,30.13,WNW,300,0.0,2.0,98,0.01,,,1.73,,2013-01-15 00:52:00,
2013-01-14 20:02:00,45.0,44.0,30.13,WNW,300,0.0,1.0,98,0.00,,,1.73,,2013-01-15 01:02:00,
2013-01-14 20:12:00,45.0,44.0,30.13,WNW,300,0.0,1.0,98,0.00,,,1.73,,2013-01-15 01:12:00,
2013-01-14 20:22:00,45.0,44.0,30.14,NNW,333,0.0,2.0,98,0.00,,,1.73,,2013-01-15 01:22:00,
2013-01-14 20:32:00,44.0,43.0,30.14,NNW,333,0.0,2.0,98,0.00,,,1.73,,2013-01-15 01:32:00,
2013-01-14 20:43:00,44.0,43.0,30.14,NNW,333,0.0,2.0,98,0.00,,,1.73,,2013-01-15 01:43:00,
2013-01-14 20:52:00,44.0,43.0,30.14,NNW,333,0.0,2.0,98,0.00,,,1.73,,2013-01-15 01:52:00,
2013-01-14 21:03:00,44.0,43.0,30.14,NNW,333,0.0,1.0,98,0.00,,,1.73,,2013-01-15 02:03:00,
2013-01-14 21:12:00,44.0,43.0,30.14,NNW,333,0.0,1.0,98,0.00,,,1.73,,2013-01-15 02:12:00,
2013-01-14 21:23:00,44.0,43.0,30.13,NNW,333,0.0,1.0,98,0.00,,,1.73,,2013-01-15 02:23:00,
2013-01-14 21:33:00,43.0,42.0,30.13,NNW,333,0.0,1.0,98,0.00,,,1.73,,2013-01-15 02:33:00,
2013-01-14 21:42:00,43.0,42.0,30.13,NNW,333,0.0,1.0,98,0.00,,,1.73,,2013-01-15 02:42:00,
2013-01-14 21:52:00,43.0,42.0,30.14,NNW,333,0.0,1.0,98,0.00,,,1.73,,2013-01-15 02:52:00,
2013-01-14 22:03:00,43.0,42.0,30.14,NNW,333,0.0,1.0,98,0.00,,,1.73,,2013-01-15 03:03:00,
2013-01-14 22:12:00,43.0,42.0,30.14,NNW,333,0.0,1.0,98,0.00,,,1.73,,2013-01-15 03:12:00,
2013-01-14 22:22:00,43.0,42.0,30.13,NNW,333,0.0,2.0,98,0.00,,,1.73,,2013-01-15 03:22:00,
2013-01-14 22:33:00,43.0,42.0,30.13,NNW,333,0.0,2.0,98,0.00,,,1.73,,2013-01-15 03:33:00,
2013-01-14 22:42:00,43.0,42.0,30.13,NNW,333,0.0,2.0,98,0.00,,,1.73,,2013-01-15 03:42:00,
2013-01-14 22:52:00,44.0,44.0,30.12,NNW,336,0.0,2.0,99,0.00,,,1.54,,2013-01-15 03:52:00,
2013-01-14 23:03:00,44.0,44.0,30.11,NNW,336,0.0,1.0,99,0.01,,,1.55,,2013-01-15 04:03:00,
2013-01-14 23:12:00,44.0,44.0,30.11,NNW,336,0.0,1.0,99,0.01,,,1.55,,2013-01-15 04:12:00,
2013-01-14 23:22:00,44.0,43.0,30.11,NNW,336,0.0,0.0,98,0.01,,,1.55,,2013-01-15 04:22:00,
2013-01-14 23:33:00,44.0,44.0,30.10,NNW,336,0.0,1.0,99,0.01,,,1.33,,2013-01-15 04:33:00,
2013-01-14 23:42:00,44.0,44.0,30.10,NNW,336,0.0,1.0,99,0.01,,,1.33,,2013-01-15 04:42:00,
2013-01-14 23:52:00,44.0,44.0,30.09,NNW,336,0.0,1.0,99,0.01,,,1.33,,2013-01-15 04:52:00,